RH
28 22 18 22 30 37 40 40 44 48 50 48 47 50 47 42 38 37 37 34 31 30 26 19 19 28 24 23 22 18 15 13 12 17 17 17 19 20 21 21 20 20 21 21 21 21 23 21 26
30 23 17 24 33 40 38 37 40 42 46 50 47 51 50 43 40 40 39 37 34 32 29 21 20 30 28 21 19 15 13 12 14 17 17 19 20 20 20 21 19 21 22 17 21 21 21 21 24
33 25 17 27 38 39 36 35 36 36 42 45 49 50 47 41 41 42 41 38 36 33 32 25 23 23 23 19 15 13 11 13 16 17 18 27 23 21 21 19 18 17 16 14 16 21 18 20 21
40 29 17 26 34 36 34 31 32 35 43 43 45 46 46 41 42 44 43 39 36 36 35 31 26 21 19 17 15 13 12 12 14 18 17 28 21 22 21 18 17 16 14 13 14 15 14 15 20
47 33 22 22 26 32 34 33 31 37 43 43 43 44 44 42 43 45 44 40 38 37 37 35 30 24 18 17 15 12 11 10 14 18 19 19 21 21 17 17 17 16 15 16 13 12 14 15 16
50 41 28 21 22 28 33 32 32 37 47 46 44 44 45 44 44 45 44 42 40 39 37 36 34 31 22 18 15 11 10 10 10 16 18 18 20 19 19 16 16 16 16 17 15 13 14 15 16
50 49 38 22 23 30 34 34 34 40 54 53 50 44 44 44 44 44 44 44 41 42 39 36 36 34 31 21 18 14 11 9 8 12 14 12 15 16 15 14 15 16 15 15 16 15 15 16 16
49 54 45 28 23 31 35 36 33 43 50 49 45 43 42 42 43 43 44 44 41 41 41 37 36 35 31 26 22 18 12 8 7 9 9 9 10 12 12 12 13 12 12 13 16 16 16 17 17
48 55 54 32 23 29 33 38 36 37 48 48 42 39 40 41 42 43 43 41 40 39 40 41 36 36 33 29 25 23 18 14 12 10 10 10 11 11 11 12 13 14 13 13 15 15 15 17 17
47 54 56 38 23 27 33 37 38 41 45 43 38 39 40 42 43 42 38 36 37 37 37 42 39 37 36 34 32 27 23 20 17 16 14 13 14 14 14 15 16 16 16 16 16 16 15 15 16
48 48 56 45 30 27 33 34 33 36 40 36 41 41 41 42 43 41 36 36 36 36 37 41 42 39 38 36 35 34 30 26 23 21 20 19 18 17 18 19 20 20 20 19 19 18 17 15 14
48 46 53 51 36 28 28 32 30 33 35 36 39 42 42 42 41 37 36 36 35 36 37 39 43 40 37 38 37 36 34 31 29 27 26 25 24 23 22 21 22 23 24 24 23 22 21 19 18
51 46 51 55 44 28 23 25 28 30 35 37 40 40 40 39 38 36 35 36 35 36 37 39 44 41 38 38 37 35 32 30 29 29 29 29 28 29 30 31 31 29 27 28 28 26 25 24 22
50 49 49 53 51 32 25 22 25 27 30 31 34 37 36 36 37 37 36 35 36 38 39 41 41 41 39 36 34 32 31 29 27 27 27 29 29 30 30 31 31 32 33 32 29 29 30 29 29
51 51 48 47 54 39 29 25 22 21 27 28 29 32 33 34 36 38 37 35 35 37 40 40 40 40 36 32 29 26 27 30 27 24 24 24 27 28 29 30 30 31 33 34 34 33 32 31 32
51 50 48 47 52 42 25 25 23 24 26 26 26 29 30 33 35 35 33 32 34 35 37 39 39 34 31 28 26 24 24 24 23 25 27 25 24 25 27 28 29 30 32 34 34 35 34 33 32
52 52 49 48 43 39 23 23 22 25 27 26 25 25 29 30 30 31 30 31 32 33 35 34 30 27 27 27 28 28 27 26 27 28 29 31 33 34 36 37 36 36 37 39 40 41 41 37 35
53 52 52 48 42 42 28 24 26 26 26 26 26 29 30 28 28 27 26 27 30 30 28 24 22 24 26 28 28 28 30 31 32 32 34 36 38 41 42 42 42 43 44 43 45 48 48 46 43
56 58 51 45 42 41 32 27 28 31 31 29 30 30 27 24 26 28 29 29 28 25 22 22 22 22 22 24 26 28 30 33 35 37 38 40 43 45 47 47 48 48 49 49 50 52 54 55 56
59 55 52 45 41 41 35 28 27 30 30 28 26 25 25 25 25 26 28 26 24 24 24 23 22 21 20 20 24 28 31 35 39 41 44 46 48 49 50 51 51 52 52 53 54 57 57 57 60
60 58 55 49 43 41 38 30 27 28 27 24 24 23 23 26 27 28 28 26 25 25 26 25 24 23 22 24 27 29 32 36 40 42 44 47 48 48 48 48 47 46 46 44 45 46 48 49 51
69 60 58 48 49 48 41 43 26 26 26 26 25 22 26 28 29 30 29 29 29 28 27 25 25 25 26 26 26 28 30 31 34 36 37 37 37 38 40 40 40 41 41 42 44 47 49 52 53
66 64 50 50 48 43 42 44 30 26 27 26 28 26 27 29 31 32 31 29 28 28 27 27 28 28 29 30 30 30 30 31 32 33 35 35 36 37 37 38 39 40 42 44 46 49 52 57 59
70 53 52 52 48 50 42 40 29 28 25 30 30 28 27 30 32 32 31 30 28 28 28 29 30 34 36 36 35 34 34 35 35 35 35 35 36 37 38 38 37 36 37 37 38 40 42 45 50
59 58 63 59 56 50 37 38 22 24 27 28 30 30 29 28 30 31 30 28 28 30 35 38 38 37 37 36 36 35 34 35 35 36 37 37 36 34 33 32 32 32 32 31 31 31 33 35 39
56 55 57 56 55 44 36 34 21 20 22 24 26 28 29 31 33 34 32 32 35 38 40 39 38 38 38 37 36 36 37 39 39 37 35 34 34 34 34 33 33 33 33 33 33 33 34 34 34
55 56 53 54 52 54 41 29 20 26 27 25 26 28 32 33 35 35 36 38 41 41 41 41 41 41 42 43 44 44 41 38 36 36 37 36 37 36 36 36 35 35 35 35 35 36 37 38 39
53 55 55 56 58 55 44 35 32 29 31 30 32 34 35 36 38 40 43 44 43 42 41 42 45 48 50 47 42 40 38 38 39 40 40 40 39 37 36 35 34 33 32 33 34 35 36 38 41
52 50 47 48 50 50 47 36 28 28 33 35 37 39 41 41 43 45 44 42 40 41 43 50 55 51 44 41 40 40 40 41 42 42 42 40 37 35 33 30 27 25 24 23 23 24 28 34 33
55 44 42 46 42 46 45 37 32 35 37 41 44 44 43 44 43 41 37 39 43 47 56 56 49 45 44 43 42 43 44 45 45 44 42 37 33 30 26 23 21 19 18 17 17 16 20 20 24